| time (UTC) | temp F | wind direction | speed MPH | gust MPH | rain 1hr in | rain 24hr in | rain mn in | humidity % | barometer mb |
| 20260906223034 | 75 | 106 | 0.0 | 4.0 | 0.00 | 0.00 | 0.00 | 60 | 1018.7 |
| 20260906221534 | 76 | 79 | 0.0 | 4.0 | 0.00 | 0.00 | 0.00 | 59 | 1018.9 |
| 20260906220024 | 77 | 71 | 0.0 | 5.0 | 0.00 | 0.00 | 0.00 | 58 | 1019.0 |
| 20260906214537 | 78 | 91 | 1.0 | 4.0 | 0.00 | 0.00 | 0.00 | 56 | 1019.3 |
| 20260906213035 | 79 | 58 | 0.0 | 2.0 | 0.00 | 0.00 | 0.00 | 55 | 1019.6 |
| 20260906211535 | 79 | 87 | 0.0 | 4.0 | 0.00 | 0.00 | 0.00 | 57 | 1019.7 |
| 20260906210037 | 80 | 92 | 1.0 | 3.0 | 0.00 | 0.00 | 0.00 | 54 | 1019.7 |
| 20260906204530 | 81 | 92 | 0.0 | 3.0 | 0.00 | 0.00 | 0.00 | 56 | 1019.7 |
| 20260906203033 | 81 | 117 | 1.0 | 3.0 | 0.00 | 0.00 | 0.00 | 53 | 1019.7 |
| 20260906201511 | 81 | 80 | 1.0 | 3.0 | 0.00 | 0.00 | 0.00 | 54 | 1019.7 |
| 20260906200010 | 80 | 106 | 1.0 | 3.0 | 0.00 | 0.00 | 0.00 | 55 | 1019.7 |
| 20260906194519 | 80 | 53 | 0.0 | 4.0 | 0.00 | 0.00 | 0.00 | 58 | 1019.7 |
| 20260906193011 | 80 | 115 | 0.0 | 4.0 | 0.00 | 0.00 | 0.00 | 57 | 1019.8 |
| 20260906191505 | 79 | 99 | 0.0 | 3.0 | 0.00 | 0.00 | 0.00 | 61 | 1019.8 |
| 20260906190012 | 79 | 115 | 1.0 | 3.0 | 0.00 | 0.00 | 0.00 | 59 | 1020.0 |
| 20260906184509 | 79 | 209 | 0.0 | 3.0 | 0.00 | 0.00 | 0.00 | 60 | 1019.9 |
| 20260906183011 | 79 | 79 | 1.0 | 4.0 | 0.00 | 0.00 | 0.00 | 59 | 1020.0 |
| 20260906181530 | 79 | 110 | 1.0 | 4.0 | 0.00 | 0.00 | 0.00 | 61 | 1020.0 |
| 20260906180024 | 79 | 80 | 1.0 | 4.0 | 0.00 | 0.00 | 0.00 | 60 | 1020.2 |
| 20260906174515 | 78 | 45 | 1.0 | 4.0 | 0.00 | 0.00 | 0.00 | 61 | 1020.2 |
| 20260906173016 | 78 | 92 | 0.0 | 6.0 | 0.00 | 0.00 | 0.00 | 65 | 1020.3 |
| 20260906171514 | 77 | 79 | 0.0 | 2.0 | 0.00 | 0.00 | 0.00 | 65 | 1020.5 |
| 20260906170017 | 77 | 91 | 0.0 | 0.0 | 0.00 | 0.00 | 0.00 | 66 | 1020.6 |
| 20260906164516 | 77 | 88 | 0.0 | 0.0 | 0.00 | 0.00 | 0.00 | 68 | 1020.5 |
| 20260906163014 | 77 | 97 | 0.0 | 0.0 | 0.00 | 0.00 | 0.00 | 70 | 1020.5 |
| 20260906161534 | 77 | 109 | 0.0 | 0.0 | 0.00 | 0.00 | 0.00 | 72 | 1020.5 |
| 20260906160018 | 76 | 121 | 0.0 | 0.0 | 0.00 | 0.00 | 0.00 | 73 | 1020.4 |
| 20260906154517 | 76 | 85 | 0.0 | 0.0 | 0.00 | 0.00 | 0.00 | 75 | 1020.2 |
| 20260906153018 | 75 | 70 | 0.0 | 0.0 | 0.00 | 0.00 | 0.00 | 76 | 1020.1 |
| 20260906151521 | 74 | 101 | 0.0 | 0.0 | 0.00 | 0.00 | 0.00 | 81 | 1020.2 |
| 20260906150015 | 74 | 106 | 0.0 | 0.0 | 0.00 | 0.00 | 0.00 | 82 | 1020.3 |
| 20260906144524 | 73 | 152 | 0.0 | 0.0 | 0.00 | 0.00 | 0.00 | 84 | 1020.3 |
| 20260906143018 | 73 | 309 | 0.0 | 0.0 | 0.00 | 0.00 | 0.00 | 86 | 1020.3 |
| 20260906141522 | 72 | 94 | 0.0 | 0.0 | 0.00 | 0.00 | 0.00 | 89 | 1020.2 |
| 20260906140024 | 71 | 207 | 0.0 | 0.0 | 0.00 | 0.00 | 0.00 | 91 | 1020.3 |
| 20260906134525 | 71 | 144 | 0.0 | 0.0 | 0.00 | 0.00 | 0.00 | 93 | 1020.0 |
| 20260906133030 | 70 | 132 | 0.0 | 0.0 | 0.00 | 0.00 | 0.00 | 94 | 1020.2 |
| 20260906131526 | 69 | 128 | 0.0 | 0.0 | 0.00 | 0.00 | 0.00 | 94 | 1020.0 |
| 20260906130026 | 68 | 201 | 0.0 | 0.0 | 0.00 | 0.00 | 0.00 | 94 | 1020.1 |
| 20260906124527 | 68 | 201 | 0.0 | 0.0 | 0.00 | 0.00 | 0.00 | 94 | 1019.8 |
| 20260906123030 | 67 | 201 | 0.0 | 0.0 | 0.00 | 0.00 | 0.00 | 94 | 1020.0 |
| 20260906121534 | 66 | 201 | 0.0 | 0.0 | 0.00 | 0.00 | 0.00 | 94 | 1019.6 |
| 20260906120023 | 66 | 201 | 0.0 | 0.0 | 0.00 | 0.00 | 0.00 | 94 | 1019.4 |
| 20260906114532 | 66 | 201 | 0.0 | 0.0 | 0.00 | 0.00 | 0.00 | 94 | 1019.2 |
| 20260906113027 | 66 | 201 | 0.0 | 0.0 | 0.00 | 0.00 | 0.00 | 94 | 1018.8 |
| 20260906111530 | 66 | 201 | 0.0 | 0.0 | 0.00 | 0.00 | 0.00 | 94 | 1018.6 |
| 20260906110027 | 66 | 201 | 0.0 | 0.0 | 0.00 | 0.00 | 0.00 | 94 | 1018.7 |
| 20260906104531 | 66 | 201 | 0.0 | 0.0 | 0.00 | 0.00 | 0.00 | 94 | 1018.5 |
| 20260906103026 | 66 | 201 | 0.0 | 0.0 | 0.00 | 0.00 | 0.00 | 93 | 1018.3 |
| 20260906101534 | 67 | 201 | 0.0 | 0.0 | 0.00 | 0.00 | 0.00 | 93 | 1018.2 |
| 20260906100034 | 67 | 201 | 0.0 | 0.0 | 0.00 | 0.00 | 0.00 | 93 | 1018.2 |
| 20260906094532 | 67 | 201 | 0.0 | 0.0 | 0.00 | 0.00 | 0.00 | 93 | 1018.0 |
| 20260906093029 | 67 | 201 | 0.0 | 0.0 | 0.00 | 0.00 | 0.00 | 93 | 1018.1 |
| 20260906091532 | 67 | 201 | 0.0 | 0.0 | 0.00 | 0.00 | 0.00 | 93 | 1018.0 |
| 20260906090029 | 67 | 201 | 0.0 | 0.0 | 0.00 | 0.00 | 0.00 | 93 | 1018.0 |
| 20260906084532 | 67 | 201 | 0.0 | 0.0 | 0.00 | 0.00 | 0.00 | 92 | 1017.9 |
| 20260906083039 | 68 | 201 | 0.0 | 0.0 | 0.00 | 0.01 | 0.00 | 92 | 1017.9 |
| 20260906081520 | 68 | 201 | 0.0 | 0.0 | 0.00 | 0.01 | 0.00 | 92 | 1017.9 |
| 20260906080016 | 68 | 201 | 0.0 | 0.0 | 0.00 | 0.01 | 0.00 | 92 | 1018.1 |
| 20260906074530 | 69 | 201 | 0.0 | 0.0 | 0.00 | 0.01 | 0.00 | 92 | 1018.1 |
| 20260906073027 | 69 | 201 | 0.0 | 0.0 | 0.00 | 0.01 | 0.00 | 92 | 1018.1 |
| 20260906071528 | 69 | 201 | 0.0 | 0.0 | 0.00 | 0.01 | 0.00 | 91 | 1018.2 |
| 20260906070023 | 69 | 201 | 0.0 | 0.0 | 0.00 | 0.01 | 0.00 | 91 | 1018.3 |
| 20260906064515 | 69 | 201 | 0.0 | 0.0 | 0.00 | 0.01 | 0.00 | 91 | 1018.2 |
| 20260906063015 | 70 | 201 | 0.0 | 0.0 | 0.00 | 0.01 | 0.00 | 90 | 1018.1 |
| 20260906061531 | 70 | 201 | 0.0 | 0.0 | 0.00 | 0.01 | 0.00 | 90 | 1018.1 |
| 20260906060027 | 70 | 201 | 0.0 | 0.0 | 0.00 | 0.01 | 0.00 | 90 | 1018.1 |
| 20260906054529 | 70 | 150 | 0.0 | 0.0 | 0.00 | 0.01 | 0.00 | 89 | 1018.0 |
| 20260906053025 | 71 | 150 | 0.0 | 0.0 | 0.00 | 0.01 | 0.00 | 89 | 1018.0 |
| 20260906051520 | 71 | 135 | 0.0 | 0.0 | 0.00 | 0.01 | 0.00 | 89 | 1017.9 |
| 20260906050017 | 71 | 135 | 0.0 | 0.0 | 0.00 | 0.01 | 0.00 | 89 | 1017.9 |
| 20260906044528 | 71 | 135 | 0.0 | 0.0 | 0.00 | 0.01 | 0.01 | 89 | 1017.8 |
| 20260906043033 | 71 | 135 | 0.0 | 1.0 | 0.00 | 0.01 | 0.01 | 88 | 1017.6 |
| 20260906041534 | 71 | 135 | 0.0 | 2.0 | 0.00 | 0.01 | 0.01 | 88 | 1017.3 |
| 20260906040028 | 72 | 246 | 0.0 | 1.0 | 0.00 | 0.01 | 0.01 | 87 | 1017.0 |
| 20260906034534 | 72 | 314 | 0.0 | 2.0 | 0.00 | 0.01 | 0.01 | 87 | 1017.0 |
| 20260906033020 | 72 | 240 | 0.0 | 1.0 | 0.00 | 0.01 | 0.01 | 86 | 1016.8 |
| 20260906031535 | 72 | 103 | 0.0 | 2.0 | 0.00 | 0.01 | 0.01 | 86 | 1017.0 |
| 20260906030029 | 72 | 120 | 0.0 | 3.0 | 0.00 | 0.01 | 0.01 | 86 | 1016.9 |
| 20260906024531 | 72 | 136 | 0.0 | 2.0 | 0.00 | 0.01 | 0.01 | 86 | 1017.0 |
| 20260906023032 | 72 | 115 | 1.0 | 3.0 | 0.00 | 0.01 | 0.01 | 86 | 1017.1 |
| 20260906021536 | 72 | 113 | 1.0 | 4.0 | 0.00 | 0.01 | 0.01 | 86 | 1016.9 |
| 20260906020036 | 72 | 101 | 0.0 | 4.0 | 0.00 | 0.01 | 0.01 | 86 | 1016.9 |
| 20260906014532 | 72 | 91 | 0.0 | 4.0 | 0.00 | 0.01 | 0.01 | 86 | 1017.0 |
| 20260906013034 | 72 | 116 | 0.0 | 3.0 | 0.00 | 0.01 | 0.01 | 86 | 1017.1 |
| 20260906011535 | 72 | 123 | 0.0 | 3.0 | 0.00 | 0.01 | 0.01 | 86 | 1017.1 |
| 20260906010030 | 72 | 5 | 0.0 | 3.0 | 0.00 | 0.01 | 0.01 | 86 | 1017.0 |
| 20260906004530 | 72 | 122 | 0.0 | 3.0 | 0.00 | 0.01 | 0.01 | 85 | 1016.8 |
| 20260906003035 | 73 | 236 | 0.0 | 3.0 | 0.00 | 0.01 | 0.01 | 85 | 1016.5 |
| 20260906001548 | 73 | 88 | 0.0 | 3.0 | 0.00 | 0.01 | 0.01 | 85 | 1016.4 |
| 20260906000035 | 74 | 98 | 0.0 | 3.0 | 0.00 | 0.01 | 0.01 | 83 | 1016.2 |
| 20260905234533 | 75 | 35 | 0.0 | 2.0 | 0.00 | 0.01 | 0.01 | 82 | 1016.2 |
| 20260905233032 | 76 | 79 | 0.0 | 3.0 | 0.00 | 0.01 | 0.01 | 82 | 1016.1 |
| 20260905231512 | 77 | 71 | 0.0 | 3.0 | 0.00 | 0.01 | 0.01 | 80 | 1016.0 |
| 20260905230006 | 78 | 93 | 0.0 | 4.0 | 0.00 | 0.01 | 0.01 | 78 | 1015.8 |
| 20260905224525 | 80 | 55 | 0.0 | 4.0 | 0.00 | 0.01 | 0.01 | 76 | 1015.5 |